Вернуться в каталог

COSMOS 2061

АктивенВоенныеPO
NORAD 20527·PAYLOAD·🇷🇺 Russia

Запущен Mar 20, 1990 с Plesetsk Cosmodrome

Loading…

Ближайшие Пролёты (ближайшие 24 часа)

TLE

СвежийSource: Space-Track

Эпоха: Sep 14, 2026, 12:45 UTC

1 20527U 90023A   26257.53180429  .00000033  00000-0  19369-4 0  9992
2 20527  82.9332 103.4500 0031509  19.3087   7.9049 13.72390355827064

Отслеживайте COSMOS 2061 в реальном времени с AllMySat

Download on the App Store